www.pogodaiklimat.ru

Погода и климат >> Архив погоды >> Таиланд >> Такфа Агромет


ПОГОДА в Такфа Агромете

  • Прогноз погоды в Такфа Агромете
  • Монитор погоды в Такфа Агромете

АРХИВ ПОГОДЫ в Такфа Агромете

Время (UTC), дата Ветер
(напр.,м/с)
 
Видим.   Явления Облачность Т
(С)
Тd
(С)
f
(%)
Тe
(С)
Тes
(С)
Комфортность P
(гПа)
Po
(гПа)
Тmin
(С)
Tmax
(С)
R
(мм)
R24
(мм)
S
(см)
03 12.02 штиль 0 9000 м в посл. час дождь 8/3 600 м
[Sc Ac As Cs]
+26.0 +23.8 88 +36 +43 очень
душно
1021.1 1010.2 2
06 12.02 штиль 0 10 км {дождь} 4/3 600 м
[Sc Ac lent Cs]
+30.0 +24.3 72 +42 +57 опасность
перегрева
1017.8 1007.1 2
09 12.02 штиль 0 10 км 5/3 600 м
[Sc Ac lent Cs]
+30.0 +23.0 66 +40 +44 очень
душно
1014.9 1004.2
12 12.02 штиль 0 9000 м дымка 5/3 600 м
[Sc Ac lent Cs]
+27.5 +23.9 81 +38 +38 очень
душно
1016.0 1005.3 +33.3
15 12.02 штиль 0 9000 м дымка 5/3 600 м
[Sc Ac lent Cs]
+26.0 +23.1 84 +35 +35 очень
душно
1018.2 1007.3
18 12.02 штиль 0 9000 м дымка 5/3 600 м
[Sc Ac lent Cs]
+25.5 +22.5 83 +33 +33 очень
душно
1017.6 1006.8
21 12.02 штиль 0 9000 м дымка 5/3 600 м
[Sc Ac lent Cs]
+25.0 +22.0 83 +32 +32 очень
душно
1016.5 1005.7
00 13.02 ЮВ 3 9000 м дымка 8/3 600 м
[Sc Ac lent Cs]
+24.5 +21.5 83 +31 +31 очень
душно
1017.8 1006.9 +22.2 2
03 13.02 штиль 0 9000 м мгла 4/0
[Cs]
+30.0 +21.9 62 +39 +53 опасность
солнечного
удара
1018.4 1007.8
06 13.02 штиль 0 7000 м мгла 1/1 600 м
[Cu hum Cs]
+34.0 +20.6 46 +41 +61 опасность
перегрева
1015.1 1004.6
09 13.02 штиль 0 7000 м мгла 1/1 600 м
[Cu hum]
+35.2 +19.9 41 +41 +47 опасность
перегрева
1012.3 1001.9
12 13.02 штиль 0 6000 м мгла 1/0
[Cs]
+31.5 +22.4 59 +41 +41 опасность
перегрева
1013.9 1003.3 +35.5
15 13.02 штиль 0 6000 м дымка ясно +27.5 +22.3 73 +36 +36 очень
душно
1015.1 1004.3
18 13.02 штиль 0 6000 м дымка ясно +25.5 +22.5 83 +33 +33 очень
душно
1014.0 1003.2
21 13.02 штиль 0 5000 м дымка ясно +24.5 +22.4 88 +32 +32 очень
душно
1013.5 1002.6
00 14.02 штиль 0 800 м туман 10/8 600 м
[St Ac As Cs]
+24.7 +23.7 94 +34 +34 очень
душно
1014.9 1004.1 +23.9
03 14.02 штиль 0 10 км {туман} 6/3 600 м
[Sc Ac As Cs]
+28.0 +25.1 84 +40 +49 очень
душно
1016.5 1005.8
06 14.02 ЮВ 3 10 км {туман} 6/3 600 м
[Sc Ac As Cs]
+31.5 +23.6 63 +43 +50 опасность
перегрева
1014.0 1003.4
09 14.02 штиль 0 10 км 6/3 600 м
[Sc Ac As Cs]
+34.0 +22.4 51 +43 +47 опасность
перегрева
1011.2 1000.7
12 14.02 штиль 0 9000 м дымка 4/3 600 м
[Sc Ac lent Cs]
+30.8 +23.4 65 +42 +42 опасность
перегрева
1012.0 1001.4 +34.4
15 14.02 штиль 0 9000 м дымка 4/3 600 м
[Sc Ac lent Cs]
+27.4 +23.9 81 +38 +38 очень
душно
1014.1 1003.4
18 14.02 ЮВ 3 9000 м дымка 6/3 600 м
[Sc Ac As Cs]
+26.0 +23.1 84 +35 +35 очень
душно
1014.3 1003.5
21 14.02 штиль 0 9000 м дымка 6/3 600 м
[Sc Ac As Cs]
+25.2 +23.4 90 +34 +34 очень
душно
1013.5 1002.7
00 15.02 штиль 0 3000 м дымка 8/3 600 м
[Sc Ac As Cs]
+24.7 +23.7 94 +34 +34 очень
душно
1014.9 1004.1 +23.8
03 15.02 Ю 4 5000 м дымка 9/5 600 м
[Sc Ac As Cs]
+28.7 +24.4 78 +41 +43 опасность
перегрева
1016.5 1005.7
06 15.02 Ю 4 7000 м мгла 6/5 600 м
[Cu med, cong Cs]
+32.5 +23.9 61 +44 +50 опасность
перегрева
1013.9 1003.3
09 15.02 штиль 0 7000 м мгла 6/3 600 м
[Sc Ac As Cs]
+33.0 +21.1 50 +41 +44 опасность
перегрева
1011.0 1000.5
12 15.02 штиль 0 4000 м дымка 8/1 600 м
[Sc Ac As Cs]
+30.3 +23.3 66 +41 +41 опасность
перегрева
1012.6 1002.0 +34.0
15 15.02 штиль 0 4000 м дымка 3/0
[Ac lent Cs]
+27.7 +23.8 79 +38 +38 очень
душно
1015.1 1004.3
18 15.02 Ю 2 4000 м в посл. час дождь 8/3 600 м
[Sc Ac As Cs]
+25.7 +23.7 89 +35 +35 очень
душно
1014.9 1004.1 4
21 15.02 штиль 0 4000 м дымка 9/3 600 м
[Sc Ac As Cs]
+25.1 +23.6 91 +34 +34 очень
душно
1014.0 1003.2
00 16.02 штиль 0 3000 м дымка 9/3 600 м
[Sc Ac As Cs]
+24.5 +23.3 93 +33 +33 очень
душно
1015.5 1004.6 +24.3 4
03 16.02 Ю 5 6000 м дымка 6/4 600 м
[Sc Ac lent Cs]
+29.0 +23.9 74 +40 +43 очень
душно
1016.4 1005.7
06 16.02 Ю 4 7000 м мгла 5/4 600 м
[Cu med, cong Cs]
+32.0 +23.3 60 +43 +49 опасность
перегрева
1013.7 1003.1
09 16.02 ЮЗ 2 7000 м мгла 4/3 600 м
[Cu hum Cs]
+33.3 +22.5 53 +43 +46 опасность
перегрева
1010.5 1000.0
12 16.02 ЮВ 2 4000 м мгла 4/3 600 м
[Cu hum Cs]
+30.0 +21.9 62 +39 +39 очень
душно
1010.7 1000.1 +33.9
15 16.02 Ю 2 5000 м дымка 3/0
[Cs]
+27.5 +21.7 71 +35 +35 очень
душно
1013.0 1002.3
18 16.02 штиль 0 5000 м дымка 9/0
[Ac As Cs]
+25.7 +23.2 86 +34 +34 очень
душно
1013.2 1002.4
21 16.02 штиль 0 5000 м дымка 8/0
[Ac As Cs]
+25.0 +23.4 91 +34 +34 очень
душно
1012.4 1001.6
00 17.02 ЮВ 2 9000 м дымка 8/3 600 м
[Sc Ac As Cs]
+25.0 +22.9 88 +33 +33 очень
душно
1013.3 1002.5 +24.3
03 17.02 ЮВ 3 10 км 6/3 600 м
[Sc Ac As Cs]
+28.5 +22.6 70 +37 +43 очень
душно
1015.3 1004.6
06 17.02 Ю 3 10 км 6/3 600 м
[Sc Ac As Cs]
+32.5 +21.4 52 +40 +48 очень
душно
1012.7 1002.1
09 17.02 Ю 5 10 км 9/5 600 м
[Sc Ac As Cs]
+31.6 +20.5 52 +39 +39 очень
душно
1009.0 998.5
12 17.02 ЮВ 3 4000 м дымка 8/5 600 м
[Sc Ac As Cs]
+27.6 +21.5 69 +35 +35 очень
душно
1009.4 998.8 +33.5
15 17.02 штиль 0 4000 м дымка 8/3 600 м
[Sc Ac As Cs]
+25.5 +21.7 80 +33 +33 очень
душно
1012.4 1001.6
18 17.02 ЮВ 3 4000 м дымка 6/3 600 м
[Sc Ac As Cs]
+25.2 +21.9 82 +32 +32 очень
душно
1012.6 1001.8
21 17.02 Ю 3 4000 м дымка 9/4 600 м
[Sc Ac As Cs]
+24.5 +22.3 88 +32 +32 очень
душно
1011.1 1000.3
00 18.02 Ю 2 4000 м дымка 9/3 600 м
[Sc Ac As Cs]
+23.2 +22.3 95 +32 +32 очень
душно
1012.2 1001.4 +23.0
03 18.02 ЮВ 3 10 км 6/3 600 м
[Sc Ac As Cs]
+28.5 +22.6 70 +37 +43 очень
душно
1014.8 1004.1
06 18.02 штиль 0 10 км 4/3 600 м
[Sc Cs]
+33.5 +20.9 48 +41 +57 опасность
перегрева
1012.4 1001.9
09 18.02 Ю 4 10 км 4/3 600 м
[Sc Cs]
+33.6 +18.0 40 +38 +40 очень
душно
1009.2 998.7
12 18.02 штиль 0 4000 м мгла 4/3 600 м
[Sc Cs]
+29.0 +18.4 53 +34 +34 очень
душно
1010.1 999.4 +34.3
15 18.02 штиль 0 4000 м дымка 4/3 600 м
[Sc Cs]
+26.0 +21.5 76 +33 +33 очень
душно
1012.2 1001.4
18 18.02 Ю 3 4000 м дымка 4/3 600 м
[Sc Cs]
+25.0 +22.0 83 +32 +32 очень
душно
1012.8 1002.0
21 18.02 Ю 3 4000 м дымка 6/3 600 м
[Sc Ac As Cs]
+23.5 +22.4 94 +31 +31 очень
душно
1011.5 1000.7
00 19.02 ЮВ 2 6000 м дымка 6/3 600 м
[Sc Ac As Cs]
+23.5 +22.0 91 +30 +30 очень
душно
1013.0 1002.2 +22.7

 

Местоположение метеостанции Такфа Агромет (Таиланд): широта 15.35 долгота 100.50 высота над уровнем моря 87 м.

В архиве по умолчанию представлена погода в Такфа Агромете за последнюю неделю. Архивные данные за месяц целиком и за предыдущие месяцы, начиная с января 2011 года, Вы можете получить, выбрав интересующий диапазон дат из раскрывающегося списка и нажав кнопку "Ввод!".


*Определитесь, кто Вы:
робот инопланетянин человек

Внимание! Время в таблицах - всемирное. Для получения местного времени необходимо прибавить поправку, которая равна 7 ч.

Смотрите также архив погоды в соседних городах и на ближайших метеорологических станциях:

Погода в Чайнат Агромете (Таиланд) (41 км)
Погода в Утай Тани (Таиланд) (49 км)
Погода в Лаем-Чабанге (Таиланд) (51 км)
Погода в Накхон Саван (Таиланд) (62 км)
Погода в Лопбури (Таиланд) (62 км)
Погода в Вичан Бури (Таиланд) (72 км)
Погода в Буа Чум (Таиланд) (73 км)
Погода в Аюттхая (Таиланд) (95 км)
Погода в Сарабури (Таиланд) (103 км)
Погода в Суфанбури (Таиланд) (106 км)

Пояснения к столбцам:

Ветер - указаны скорость ветра в м/с - средняя за 10 мин, порывы в срок и между сроками (в фигурных скобках) и направление, откуда дует ветер: С - северный, СВ - северо-восточный, В - восточный, ЮВ - юго-восточный, Ю - южный, ЮЗ - юго-западный, З - западный, СЗ - северо-западный.
Видимость - горизонтальная дальность видимости в метрах или километрах. При видимости от 1 до 10 км при отсутствии осадков обычно наблюдается дымка, при ухудшении видимости до 1 км и менее - туман. В сухую погоду видимость может ухудшаться дымом, пылью или мглою.
Явления - указаны атмосферные явления, наблюдавшиеся в срок или в последний час перед сроком; фигурными скобками обозначены явления, наблюдавшиеся между сроками (за 1-3 часа до срока); квадратными скобками обозначены град или гололедные отложения с указанием их диаметра в мм.
Облачность - указаны через наклонную черту общая и нижняя облачность в баллах и высота нижней границы облаков в метрах; квадратными скобками обозначены формы облаков: Ci - перистые, Cs - перисто-слоистые, Cc - перисто-кучевые, Ac - высококучевые, As - высокослоистые, Sc - слоисто-кучевые, Ns - слоисто-дождевые, Cu - кучевые, Cb - кучево-дождевые. Подробнее классификацию облаков см. в Атласе облаков (PDF).
T - Температура воздуха - температура, измеренная на высоте 2 м над землей.
Td - Температура точки росы - температура, при понижении до которой содержащийся в воздухе водяной пар достигнет насыщения.
f - Относительная влажность воздуха - влажноcть воздуха, измеренная на высоте 2 м над землей.
Te - Эффективная температура - температура, которую ощущает одетый по сезону человек в тени. Характеристика душности погоды. При расчете учитывается влияние влажности воздуха и скорости ветра на теплоощущения человека.
Tes - Эффективная температура на солнце - температура, которую ощущает человек, с поправкой на солнечный нагрев. Характеристика знойности погоды. Зависит от высоты солнца над горизонтом, облачности и скорости ветра. Ночью, в пасмурную погоду, а также при ветре 12 м/с и более поправка равна нулю.
P - Атмосферное давление - приведенное к уровню моря атмосферное давление.
Po - Атмосферное давление - измеренное на уровне метеостанции атмосферное давление.
Tmin - Минимальная температура - минимум температуры воздуха на высоте 2 м над землей.
Tmax - Максимальная температура - максимум температуры воздуха на высоте 2 м над землей.
R - Количество осадков - Количество выпавших осадков за период времени, мм. При наведении курсора мыши на число - период времени, за который выпало указанное количество осадков.
R24 - Количество осадков - Количество выпавших осадков за 24 часа, мм.
S - Снежный покров - Высота снежного покрова, см. При наведении курсора мыши на число - состояние снежного покрова и степень покрытия местности в баллах.